Weather in Bol'shekyzylbayevo

Russia / Republic of Bashkortostan     55°57′52″N   58°04′31″E
temp.,
°C
wind,
m/s
gust,
m/s
humid.,
%
clouds,
%
prec.,
mm/h
press.,
hPa
HPBL,
m
28 february, sun
sun2823:00−14ese4995100 0.9 1007380
02:00−15ese499198 0.1 1006249
05:00−14e489199 0.1 1005302
08:00−14e4894100 0.1 1004341
11:00−11e4792100 0.2 1004422
14:00−9e5791100 0.3 1005521
17:00−10e5892100 0.5 1005492
20:00−13ene4995100 0.2 1008375
1 march, mon
mon123:00−14ene4895100 0.4 1010366
02:00−17ne3695100 0.1 1011170
05:00−17ne3696100 0.1 1013223
08:00−17ne3796100 0.3 1014281
11:00−15ene3493100 0.4 1016354
14:00−12ne2388100 0.2 1015462
17:00−11n2290100 0.3 1016331
20:00−15nw119695 0.1 101720
2 march, tue
tue223:00−17wsw119679 0.1 101720
02:00−18wsw239670 0.0 101761
05:00−20sw239775 0.1 101640
08:00−22ssw239658 0.0 101441
11:00−16ssw479062 0.0 1012404
14:00−11ssw488495 0.0 1009555
17:00−9ssw5108897 0.0 1007557
20:00−11ssw41291100 0.2 1005636
3 march, wed
wed323:00−13ssw31189100 0.3 1005570
02:00−13s3995100 0.2 1003501
05:00−11sse3895100 0.9 1001414
08:00−10sse3795100 0.6 999276
11:00−7s3693100 0.9 998377
14:00−2ssw3595100 0.6 997454
17:00−2wsw3696100 1.7 997449
20:00−5wnw4994100 0.4 997339
4 march, thu
thu423:00−10wnw3494100 0.4 100073
02:00−10w3695100 0.1 1000135
05:00−11wnw489398 0.2 1002258
08:00−14w379555 0.0 1004144
11:00−10w489071 0.0 1005390
14:00−7w588571 0.0 1005870
17:00−8w598585 0.1 1006829
20:00−10sw4109196 0.0 1006433